This is the latest recevied weather packets stored in our database for station/object WC4PEM-7. If no packets are shown the sender has not sent any weather packets the latest 10 day(s).
| Time | Temp. | Humidity | Pressure | Rain* | Wind** | Luminosity | Snow |
|---|---|---|---|---|---|---|---|
| 1777642131 | 25° C | 80% | 1012.7 hPa | 0 mm | - | - | - |
| 1777641831 | 25.56° C | 82% | 1012.5 hPa | 0 mm | - | - | - |
| 1777641531 | 25.56° C | 81% | 1012.6 hPa | 0 mm | - | - | - |
| 1777641379 | 25.56° C | 84% | 1012.6 hPa | 0 mm | - | - | - |
| 1777641231 | 25.56° C | 84% | 1012.6 hPa | 0 mm | - | - | - |
| 1777640931 | 25° C | 84% | 1012.7 hPa | 0 mm | - | - | - |
| 1777640681 | 24.44° C | 87% | 1012.5 hPa | 0 mm | - | - | - |
| 1777640631 | 25° C | 84% | 1012.7 hPa | 0 mm | - | - | - |
| 1777640331 | 25° C | 85% | 1012.4 hPa | 0 mm | - | - | - |
| 1777640266 | 24.44° C | 86% | 1012.6 hPa | 0 mm | - | - | - |
| 1777640031 | 24.44° C | 86% | 1012.6 hPa | 0 mm | - | - | - |
| 1777640000 | 24.44° C | 87% | 1012.5 hPa | 0 mm | - | - | - |
| 1777639731 | 24.44° C | 87% | 1012.5 hPa | 0 mm | - | - | - |
| 1777639672 | 23.89° C | 88% | 1012.5 hPa | 0 mm | - | - | - |
| 1777639431 | 23.89° C | 88% | 1012.5 hPa | 0 mm | - | - | - |
| 1777639131 | 23.33° C | 89% | 1012.4 hPa | 0 mm | - | - | - |
| 1777638831 | 23.33° C | 91% | 1012.6 hPa | 0 mm | - | - | - |
| 1777638531 | 22.78° C | 93% | 1012.5 hPa | 0 mm | - | - | - |
| 1777638231 | 22.22° C | 93% | 1012.6 hPa | 0 mm | - | - | - |
| 1777637931 | 22.22° C | 94% | 1012.3 hPa | 0 mm | - | - | - |
| 1777637914 | 21.67° C | 95% | 1012.4 hPa | 0 mm | - | - | - |
| 1777637631 | 21.67° C | 95% | 1012.4 hPa | 0 mm | - | - | - |
| 1777637331 | 21.67° C | 94% | 1012.5 hPa | 0 mm | - | - | - |
| 1777637149 | 21.67° C | 94% | 1012.2 hPa | 0 mm | - | - | - |
| 1777637032 | 21.67° C | 94% | 1012.2 hPa | 0 mm | - | - | - |
* Rain latest hour (hover to see other rain measurements)
** Current wind speed in m/s (hover to see current wind gust speed)